sat.trackr.live / text

‹ back to catalog

STARLINK-32946

NORAD 63196 · 2025-048P

PAYLOAD ACTIVE UNKNOWN

§ Identity

Operator
Country
US
Launch date
2025-03-13
Launch site
AFETR
Launch vehicle
Mass (kg)
RCS (m²)

Purposes: comms

External: N2YO · Heavens-Above · Gunter

§ Orbital elements

Epoch: 2026-09-20T21:58:25.516704Z

Period
94.27 min
Inclination
43.0057°
Eccentricity
0.0002637
Mean motion
15.27585887 rev/d
Perigee alt
481.2 km
Apogee alt
484.8 km
Semi-major
6,861.2 km
B*
5.9499e-4
RAAN
66.7985°
Arg perigee
271.0301°
Mean anomaly
89.0249°
Rev number
8,690

§ Raw data

STARLINK-329461 63196U 25048P   26263.91557311  .00016150  00000+0  59499-3 0  99962 63196  43.0057  66.7985 0002637 271.0301  89.0249 15.27585887 86900

JSON: /api/v1/satellites/63196 · /tle

For live sub-satellite position, see the globe view (requires WebGL).

§ Visibility from observer

Set your observer location to see the next 7 days of passes ≥ 10°. The values pass through the URL so the page stays shareable.

No JS? Fill the form by hand. The geolocation button needs JavaScript.